Content
SEND FEEDBACK

Daily
Averages
Monthly
Summary
France

LE HAVRE, FRANCE


Home > Europe > France
Elevation: 338 feet     Latitude: 49 31N     Longitude: 000 04E

WEATHER
 
SELECT A DAY
Number of Records: 176,732;   Date Range: 3/4/97 - 8/10/14
 
SHARE

PRINT THIS DATA

[ ← Previous Day ]
WEATHER ALMANAC - APRIL 20, 2013
[ Next Day → ]
[ °C ]   °F
Weather ElementAverageHighLow
Temperature43.8 °F50 °F (2:30 pm)35.6 °F (7:30 am)
Dewpoint37.2 °F41 °F (12:30 am)33.8 °F (7:30 am)
Humidity78.6 %93 % (12:30 am)62 % (11:30 am)
Barometer30.43 in30.48 in (3:00 am)30.33 in (11:30 pm)
Wind Speed10.7 mph18.4 mph (12:30 pm)
Weather ElementAverage
Visibility6.2 mi
Wind DirectionNE (50.2 °)

Weather ElementTotal
Precipitation---
Heating Degree Days22.2 (Base 65)
Averaged from 47 records on April 20, 2013
WEATHER CONDITIONS BREAKOUT
WIND DIRECTION BREAKOUT
WEATHER BY HOUR - APRIL 20, 2013
[ °C ]   °F
Local TimeTemperatureDewpointHumidityBarometerVisibilityWind DirectionWind SpeedGust SpeedPrecipitationEventsConditions
12:30 AM42.8 °F41.0 °F93 %30.45 in6.2 miENE (70°)6.9 mph
1:00 AM42.8 °F41.0 °F93 %30.45 in6.2 miENE (70°)9.2 mph
1:30 AM42.8 °F39.2 °F87 %30.45 in6.2 miEast (80°)6.9 mph
2:00 AM42.8 °F39.2 °F87 %30.45 in6.2 miEast (90°)5.8 mph
2:30 AM41.0 °F39.2 °F93 %30.45 in6.2 miEast (90°)5.8 mph
3:00 AM41.0 °F37.4 °F87 %30.48 in6.2 miENE (70°)5.8 mph
3:30 AM39.2 °F37.4 °F93 %30.48 in6.2 miENE (60°)4.6 mphPartly Cloudy
4:00 AM41.0 °F37.4 °F87 %30.48 in6.2 miENE (60°)6.9 mphScattered Clouds
4:30 AM39.2 °F37.4 °F93 %30.48 in6.2 miENE (60°)6.9 mph
5:00 AM39.2 °F37.4 °F93 %30.48 in6.2 miNE (50°)6.9 mph
5:30 AM39.2 °F37.4 °F93 %30.45 in6.2 miNE (40°)8.1 mph
6:00 AM37.4 °F35.6 °F93 %30.45 in6.2 miNE (40°)8.1 mph
6:30 AM37.4 °F35.6 °F93 %30.48 in6.2 miNNE (20°)6.9 mph
7:00 AM37.4 °F35.6 °F93 %30.48 in6.2 miNorth (10°)5.8 mph
7:30 AM35.6 °F33.8 °F93 %30.48 in6.2 miNE (40°)6.9 mph
8:00 AM39.2 °F35.6 °F87 %30.48 in6.2 miENE (70°)6.9 mphScattered Clouds
8:30 AM41.0 °F37.4 °F87 %30.48 in6.2 miENE (60°)6.9 mphOvercast
9:00 AM42.8 °F37.4 °F81 %30.48 in6.2 miNE (50°)8.1 mphMostly Cloudy
9:30 AM42.8 °F35.6 °F76 %30.48 in6.2 miENE (60°)11.5 mphMostly Cloudy
10:00 AM44.6 °F37.4 °F76 %30.48 in6.2 miNE (40°)11.5 mphMostly Cloudy
10:30 AM46.4 °F37.4 °F71 %30.48 in6.2 miNE (50°)12.7 mphMostly Cloudy
11:00 AM46.4 °F35.6 °F66 %30.48 in6.2 miNE (50°)10.4 mphOvercast
11:30 AM48.2 °F35.6 °F62 %30.48 in6.2 miNE (50°)11.5 mphPartly Cloudy
12:00 PM48.2 °F37.4 °F66 %30.48 in6.2 miNNE (20°)12.7 mphPartly Cloudy
12:30 PM46.4 °F37.4 °F71 %30.48 in6.2 miNorth (360°)18.4 mphMostly Cloudy
1:00 PM48.2 °F37.4 °F66 %30.48 in6.2 miNNE (20°)15.0 mph
1:30 PM48.2 °F35.6 °F62 %30.45 in6.2 miNNE (30°)16.1 mphScattered Clouds
2:00 PM48.2 °F35.6 °F62 %30.45 in6.2 miNE (40°)13.8 mph
2:30 PM50.0 °F37.4 °F62 %30.45 in6.2 miNNE (20°)15.0 mph
3:00 PM50.0 °F39.2 °F66 %30.42 in6.2 miNNE (20°)13.8 mphPartly Cloudy
3:30 PM50.0 °F37.4 °F62 %30.42 in6.2 miNNE (30°)15.0 mphPartly Cloudy
4:00 PM50.0 °F37.4 °F62 %30.42 in6.2 miNNE (20°)15.0 mphPartly Cloudy
4:30 PM48.2 °F37.4 °F66 %30.39 in6.2 miNNE (30°)16.1 mph
5:00 PM48.2 °F37.4 °F66 %30.39 in6.2 miNE (40°)16.1 mph
5:30 PM48.2 °F37.4 °F66 %30.39 in6.2 miNNE (30°)16.1 mph
6:00 PM48.2 °F37.4 °F66 %30.36 in6.2 miNNE (30°)16.1 mph
6:30 PM48.2 °F37.4 °F66 %30.36 in6.2 miNNE (30°)16.1 mph
7:00 PM46.4 °F37.4 °F71 %30.36 in6.2 miNNE (30°)15.0 mph
7:30 PM46.4 °F37.4 °F71 %30.36 in6.2 miNNE (20°)16.1 mph
8:00 PM44.6 °F37.4 °F76 %30.36 in6.2 miNNE (30°)13.8 mph
8:30 PM42.8 °F35.6 °F76 %30.36 in6.2 miNNE (30°)11.5 mph
9:00 PM42.8 °F37.4 °F81 %30.36 in6.2 miNE (40°)8.1 mph
9:30 PM41.0 °F37.4 °F87 %30.36 in6.2 miNE (40°)8.1 mph
10:00 PM41.0 °F37.4 °F87 %30.36 in6.2 miNE (50°)9.2 mph
10:30 PM41.0 °F37.4 °F87 %30.36 in6.2 miNE (40°)9.2 mph
11:00 PM39.2 °F35.6 °F87 %30.36 in6.2 miNNE (30°)5.8 mph
11:30 PM41.0 °F37.4 °F87 %30.33 in6.2 miNE (50°)10.4 mph
Hourly data recorded from LFOH, located miles away from Le Havre, France







STORIES FROM OUR PARTNERS